SCP
0 0 0 0 0 0 0 0 0 0 0 0 0 0 0 0 0 0 0 0 0 0 -0 -0 0 0 0
0 0 0 0 0 0 0 0 0 0 0 0 0 0 0 0 0 0 0 0 0 0 0 0 0 0 0
0 0 0 0 0 0 0 0 0 0 0 0 0 0 0 0 0 0 0 0 0 0 0 0 0 0 0
0 0 0 0 0 0 0 0 0 0 0 0 0 0 0 0 0 0 0 0 0 0 0 0 0 0 0
0 0 0 0 0 0 0 0 0 0 0 0 0 0 0 0 0 0 0 0 0 0 0 0 0 0 0
0 0 0 0 0 0 0 0 0 0 0 0 0 0 0 0 0 0 0 0 0 0 0 0 0 0 0
0 0 0 0 0 0 0 0 0 0 0 0 0 0 0 0 0 0 0 0 0 0 0 0 0 0 0
0 0 0 0 0 0 0 0 0 0 0 0 0 0 0 0 0 0 0 0 0 0 0 0 0 0 0
0 0 0 0 0 0 0 0 0 0 0 0 0 0 0 0 0 0 0 0 0 0 0 0 0 0 0
0 0 0 0 0 0 0 0 0 0 0 0 0 0 0 0 0 0 0 0 0 0 0 0 0 0 0
0 0 0 0 0 0 0 0 0 0 0 0 0 0 0 0 0 0 0 0 0 0 0 0 0 0 0
0 0 0 0 0 0 0 0 0 0 0 0 0 0 0 0 0 0 0 0 0 0 0 0 0 0 0
0 0 0 0 0 0 0 0 0 0 0 0 0 0 0 0 0 0 0 0 0 0 0 0 0 0 0
0 0 0 0 0 0 0 0 0 0 0 0 0 0 0 0 0 0 0 0 0 0 0 0 0 0 0
0 0 0 0 0 0 0 0 0 0 0 0 0 0 0 0 0 0 0 0 0 0 0 0 0 0 0
0 0 0 0 0 0 0 0 0 0 0 0 0 0 0 0 0 0 0 0 0 0 0 0 0 0 0
Wind_Speed_500mb
71 67 61 61 59 55 54 53 49 48 46 43 42 42 40 40 41 36 34 32 30 26 25 28 25 22 18
71 67 66 63 59 54 54 52 51 49 46 43 42 40 40 38 37 32 31 31 29 28 27 28 26 22 19
71 66 68 63 60 58 52 55 55 54 51 47 45 40 40 34 31 30 29 29 28 29 31 30 26 22 19
73 68 71 67 62 58 58 60 59 59 54 51 45 44 41 38 34 30 28 28 30 33 35 33 27 25 21
75 71 73 71 65 64 64 64 63 61 55 51 49 48 47 44 41 39 34 31 31 35 36 35 31 28 24
79 77 78 74 73 69 69 67 65 62 57 55 52 52 53 50 45 39 32 30 31 35 36 36 33 30 28
85 81 78 77 75 72 69 68 67 64 60 55 53 53 52 49 44 37 32 31 32 36 38 38 36 33 33
89 88 82 80 73 73 69 69 68 68 63 58 56 53 51 48 44 35 31 30 30 33 37 38 37 38 36
92 91 85 79 74 72 70 72 69 69 64 62 58 55 52 49 44 40 36 35 33 34 37 39 40 41 41
95 90 84 81 74 69 66 62 65 62 60 60 58 55 51 50 47 43 40 37 36 35 38 42 43 45 46
91 86 82 78 75 70 65 60 55 53 55 59 58 54 52 52 52 48 46 41 36 38 38 42 46 47 49
82 83 87 83 76 70 65 58 55 53 56 59 57 55 53 55 55 52 48 45 40 42 38 42 46 49 54
57 70 79 86 80 73 68 58 54 55 56 60 59 57 55 57 59 53 50 52 51 47 42 46 50 54 60
76 66 71 82 77 71 68 60 54 54 54 60 63 58 55 57 60 60 59 61 58 54 51 51 54 55 67
79 65 72 71 72 76 73 68 61 54 56 59 63 58 58 57 67 62 67 64 63 62 62 54 24 28 41
70 95 88 87 86 77 72 64 63 64 60 61 62 63 61 59 67 67 70 69 68 70 66 69 73 70 63
Wind_Direction_500mb
195 194 196 197 194 191 190 181 183 182 178 174 171 170 172 169 172 175 178 182 186 182 178 177 174 167 166
195 196 198 197 194 187 187 182 188 184 184 179 177 174 173 174 173 178 185 188 191 187 187 185 182 181 177
197 194 197 197 193 190 187 185 190 187 186 181 183 180 178 170 174 181 195 192 197 197 192 191 194 198 193
200 193 194 193 193 187 189 191 190 188 189 189 184 181 173 174 177 189 201 203 202 202 200 203 205 206 210
201 193 190 190 189 187 190 190 190 191 191 190 187 180 176 181 187 199 205 208 208 207 209 208 211 214 224
204 197 192 192 191 191 192 193 193 191 194 193 188 186 185 190 197 201 209 212 210 210 213 215 218 224 233
205 199 196 193 196 192 193 197 197 197 197 192 191 193 195 196 202 205 212 218 218 214 214 218 224 234 238
204 202 198 198 202 195 197 200 201 204 200 198 196 198 200 201 203 211 217 219 222 222 221 223 231 238 243
204 204 202 203 203 206 198 202 205 212 201 199 200 201 202 204 206 210 213 218 225 228 229 234 241 244 247
204 202 203 206 207 209 207 215 210 214 205 202 205 206 206 208 211 212 216 220 223 234 242 246 248 249 251
200 200 206 210 210 211 213 214 216 214 206 206 208 209 210 213 217 217 220 224 230 240 252 250 250 253 256
189 200 204 208 210 213 215 215 216 215 212 212 213 213 215 217 220 222 223 229 239 245 255 255 258 258 259
187 204 209 208 208 212 216 216 216 217 216 216 217 217 219 224 223 227 227 235 236 246 254 258 265 270 270
193 199 209 212 212 216 217 217 219 222 223 222 223 223 225 228 228 231 235 235 240 246 250 261 264 271 273
193 198 201 210 218 217 219 218 217 223 227 225 224 227 227 234 232 239 242 235 248 250 254 250 254 257 280
220 198 199 199 205 213 220 218 218 224 229 233 229 230 238 229 238 240 239 241 250 251 254 256 262 263 270
Wind_Speed_850mb
71 67 61 61 59 55 54 53 49 48 46 43 42 42 40 40 41 36 34 32 30 26 25 28 25 22 18
71 67 66 63 59 54 54 52 51 49 46 43 42 40 40 38 37 32 31 31 29 28 27 28 26 22 19
71 66 68 63 60 58 52 55 55 54 51 47 45 40 40 34 31 30 29 29 28 29 31 30 26 22 19
73 68 71 67 62 58 58 60 59 59 54 51 45 44 41 38 34 30 28 28 30 33 35 33 27 25 21
75 71 73 71 65 64 64 64 63 61 55 51 49 48 47 44 41 39 34 31 31 35 36 35 31 28 24
79 77 78 74 73 69 69 67 65 62 57 55 52 52 53 50 45 39 32 30 31 35 36 36 33 30 28
85 81 78 77 75 72 69 68 67 64 60 55 53 53 52 49 44 37 32 31 32 36 38 38 36 33 33
89 88 82 80 73 73 69 69 68 68 63 58 56 53 51 48 44 35 31 30 30 33 37 38 37 38 36
92 91 85 79 74 72 70 72 69 69 64 62 58 55 52 49 44 40 36 35 33 34 37 39 40 41 41
95 90 84 81 74 69 66 62 65 62 60 60 58 55 51 50 47 43 40 37 36 35 38 42 43 45 46
91 86 82 78 75 70 65 60 55 53 55 59 58 54 52 52 52 48 46 41 36 38 38 42 46 47 49
82 83 87 83 76 70 65 58 55 53 56 59 57 55 53 55 55 52 48 45 40 42 38 42 46 49 54
57 70 79 86 80 73 68 58 54 55 56 60 59 57 55 57 59 53 50 52 51 47 42 46 50 54 60
76 66 71 82 77 71 68 60 54 54 54 60 63 58 55 57 60 60 59 61 58 54 51 51 54 55 67
79 65 72 71 72 76 73 68 61 54 56 59 63 58 58 57 67 62 67 64 63 62 62 54 24 28 41
70 95 88 87 86 77 72 64 63 64 60 61 62 63 61 59 67 67 70 69 68 70 66 69 73 70 63
Wind_Direction_850mb
195 194 196 197 194 191 190 181 183 182 178 174 171 170 172 169 172 175 178 182 186 182 178 177 174 167 166
195 196 198 197 194 187 187 182 188 184 184 179 177 174 173 174 173 178 185 188 191 187 187 185 182 181 177
197 194 197 197 193 190 187 185 190 187 186 181 183 180 178 170 174 181 195 192 197 197 192 191 194 198 193
200 193 194 193 193 187 189 191 190 188 189 189 184 181 173 174 177 189 201 203 202 202 200 203 205 206 210
201 193 190 190 189 187 190 190 190 191 191 190 187 180 176 181 187 199 205 208 208 207 209 208 211 214 224
204 197 192 192 191 191 192 193 193 191 194 193 188 186 185 190 197 201 209 212 210 210 213 215 218 224 233
205 199 196 193 196 192 193 197 197 197 197 192 191 193 195 196 202 205 212 218 218 214 214 218 224 234 238
204 202 198 198 202 195 197 200 201 204 200 198 196 198 200 201 203 211 217 219 222 222 221 223 231 238 243
204 204 202 203 203 206 198 202 205 212 201 199 200 201 202 204 206 210 213 218 225 228 229 234 241 244 247
204 202 203 206 207 209 207 215 210 214 205 202 205 206 206 208 211 212 216 220 223 234 242 246 248 249 251
200 200 206 210 210 211 213 214 216 214 206 206 208 209 210 213 217 217 220 224 230 240 252 250 250 253 256
189 200 204 208 210 213 215 215 216 215 212 212 213 213 215 217 220 222 223 229 239 245 255 255 258 258 259
187 204 209 208 208 212 216 216 216 217 216 216 217 217 219 224 223 227 227 235 236 246 254 258 265 270 270
193 199 209 212 212 216 217 217 219 222 223 222 223 223 225 228 228 231 235 235 240 246 250 261 264 271 273
193 198 201 210 218 217 219 218 217 223 227 225 224 227 227 234 232 239 242 235 248 250 254 250 254 257 280
220 198 199 199 205 213 220 218 218 224 229 233 229 230 238 229 238 240 239 241 250 251 254 256 262 263 270